Retour au catalogue

STARLINK-34658

ActifCommunicationsVLEO
NORAD 64802·PAYLOAD·🇺🇸 United States

Lancé Jul 16, 2025 depuis Vandenberg Space Force Base

Loading…

Prochains Passages (prochaines 24 heures)

TLE

FraisSource: CelesTrak SupGP

Époque: Sep 15, 2026, 03:37 UTC

1 64802C 25150N   26258.15118056  .00060665  00000+0  50855-2 0  2588
2 64802  70.0030  16.9102 0003424 267.6325  43.7214 14.98287824    10

Suivez STARLINK-34658 en temps réel avec AllMySat

Download on the App Store